Location: City of Moscow
(46.7306°N, 116.9989°W)
Time: 02:56:16
(UTC+00:00)

USA 234 - Pass Details

Date: 10 March 2026
Orbit: 1102 x 1106 km, 123.0° (Epoch: 4 January)

Event Time Altitude Azimuth Distance (km) Brightness Sun altitude
Exits shadow 05:42:10 44° 279° (W) 1,495 4.1 -38.2°
Drops below altitude 10° 05:46:41 10° 303° (WNW) 2,969 6.2 -38.7°
Sets 05:49:14 0° 307° (NW) 3,930 7.1 -39.0°
